{"data":{"norad_id":67998,"intl_designator":"2026-039N","name":"STARLINK-36988","alt_names":[],"object_type":"PAYLOAD","status":"ACTIVE","operator":null,"country":"US","launch_date":"2026-02-27","launch_site_code":"AFETR","launch_vehicle":null,"mission":null,"orbit_class":"UNKNOWN","rcs_meters":null,"size_class":null,"mass_kg":null,"dimensions":null,"purposes":["comms"],"wikipedia_slug":null,"has_3d_model":false,"image_url":null,"decayed_at":null,"tle_current":{"epoch":"2026-05-24T20:15:24.454656Z","epoch_age_seconds":99003,"freshness":"FRESH","line1":"1 67998U 26039N   26144.84403304  .00030681  00000+0  11184-2 0  9996","line2":"2 67998  42.9982 338.5594 0001531 271.6236  88.4440 15.27620708 13357","mean_motion":15.27620708,"eccentricity":0.0001531,"inclination_deg":42.9982,"raan_deg":338.5594,"arg_perigee_deg":271.6236,"mean_anomaly_deg":88.444,"bstar":0.0011184,"rev_number":1335,"period_min":94.264236695592,"perigee_km":481.87677542021,"apogee_km":483.97763327959,"semimajor_km":6861.0642043499,"source":"CELESTRAK","updated_at":"2026-05-25T13:38:21.781426Z"}}}